Waarnemingen

Advertentie
Mijn weer
P11-B, Nederland (6203): temperatuur & dauwpunt: 15.10.2018 16:00:00 - 21.10.2018 16:00:00 (CEST)P11-B, Nederland (6203): windsnelheid & windstoten: 15.10.2018 16:00:00 - 21.10.2018 16:00:00 (CEST)P11-B, Nederland (6203): windrichting: 15.10.2018 16:00:00 - 21.10.2018 16:00:00 (CEST)P11-B, Nederland (6203): luchtdruk: 15.10.2018 16:00:00 - 21.10.2018 16:00:00 (CEST)P11-B, Nederland (6203): zicht: 15.10.2018 16:00:00 - 21.10.2018 16:00:00 (CEST)
Datum & Tijd tt [°C] td [°C] ff [km/u] ff [kn] fx [km/u] fx [kn] dd ppp [hPa] vv [km]
21.10.2018 16:00:00 15,8 12,1 35 19 36 19 ZZW 1025,7 10
21.10.2018 15:00:00 15,9 12,1 35 19 32 18 ZZW 1026,2 10
21.10.2018 14:00:00 15,8 12,5 31 17 32 18 ZZW 1026,6 10
21.10.2018 13:00:00 15,9 12,3 29 16 29 16 ZZW 1027,2 10
21.10.2018 12:00:00 15,9 12,2 29 16 29 16 ZZW 1027,4 10
21.10.2018 11:00:00 15,8 12,1 31 17 29 16 ZZW 1027,7 10
21.10.2018 10:00:00 15,5 13,0 28 15 29 16 ZZW 1027,6 10
21.10.2018 09:00:00 15,7 12,3 29 16 29 16 ZZW 1027,6 10
21.10.2018 08:00:00 15,7 12,2 26 14 25 14 ZZW 1027,4 10
21.10.2018 07:00:00 15,7 12,2 24 13 25 14 ZW 1027,5 10
21.10.2018 06:00:00 15,7 12,6 28 15 29 16 ZW 1027,9 10
21.10.2018 05:00:00 15,5 12,3 29 16 29 16 ZW 1028,1 10
21.10.2018 04:00:00 15,4 11,8 28 15 25 14 ZW 1028,6 10
21.10.2018 03:00:00 15,3 11,4 28 15 29 16 ZZW 1029,0 10
21.10.2018 02:00:00 15,3 10,9 26 14 25 14 ZZW 1029,3 10
21.10.2018 01:00:00 15,3 10,7 22 12 22 12 ZZW 1030,1 10
21.10.2018 00:00:00 15,1 10,3 22 12 25 14 ZZW 1030,2 10
20.10.2018 23:00:00 15,0 10,6 21 11 22 12 ZW 1030,3 10
20.10.2018 22:00:00 15,0 10,4 21 11 22 12 ZZW 1030,4 10
20.10.2018 21:00:00 14,8 9,9 18 10 22 12 ZZW 1030,4 10
20.10.2018 20:00:00 14,8 10,1 15 8 18 10 ZW 1030,4 10
20.10.2018 19:00:00 14,6 9,5 15 8 18 10 ZW 1030,4 10
20.10.2018 18:00:00 14,7 9,3 16 9 18 10 ZW 1030,4 10
20.10.2018 17:00:00 14,7 9,2 15 8 18 10 ZW 1030,7 10
20.10.2018 16:00:00 14,6 9,3 15 8 18 10 ZW 1030,8 10
20.10.2018 15:00:00 14,5 9,2 18 10 18 10 WZW 1031,1 10
20.10.2018 14:00:00 14,4 9,0 16 9 18 10 ZW 1031,3 10
20.10.2018 13:00:00 14,3 8,5 13 7 14 8 ZW 1031,6 10
20.10.2018 12:00:00 14,2 8,6 13 7 18 10 WZW 1031,8 10
20.10.2018 11:00:00 14,1 8,5 13 7 14 8 WZW 1031,3 10
20.10.2018 10:00:00 14,0 8,5 11 6 14 8 WZW 1030,7 10
20.10.2018 09:00:00 13,9 8,4 8 4 11 6 - 1030,4 10
20.10.2018 08:00:00 14,0 8,2 8 4 11 6 - 1029,9 10
20.10.2018 07:00:00 14,1 7,8 8 4 11 6 WNW 1029,8 10
20.10.2018 06:00:00 14,0 7,2 11 6 18 10 W 1029,2 10
20.10.2018 05:00:00 13,8 8,8 11 6 18 10 W 1028,9 10
20.10.2018 04:00:00 13,7 7,9 11 6 14 8 WZW 1028,7 10
20.10.2018 03:00:00 13,5 7,4 8 4 11 6 - 1028,5 10
20.10.2018 02:00:00 13,4 7,0 8 4 11 6 ZZW 1028,3 10
20.10.2018 01:00:00 13,3 6,5 4 2 7 4 - 1028,5 10
20.10.2018 00:00:00 13,1 6,5 5 3 11 6 O 1028,2 10
19.10.2018 23:00:00 13,0 6,0 8 4 11 6 O 1028,1 10
19.10.2018 22:00:00 13,0 6,1 4 2 11 6 - 1028,0 10
19.10.2018 21:00:00 12,9 6,1 8 4 14 8 NNO 1027,6 10
19.10.2018 20:00:00 13,0 6,2 11 6 14 8 NNO 1027,0 10
19.10.2018 19:00:00 12,8 6,0 11 6 18 10 NNO 1026,2 10
19.10.2018 18:00:00 12,9 6,0 9 5 18 10 NNO 1025,9 10
19.10.2018 17:00:00 12,8 5,9 11 6 14 8 NNO 1026,1 10
19.10.2018 16:00:00 12,7 6,1 9 5 14 8 NNO 1026,0 10
19.10.2018 15:00:00 12,5 6,3 8 4 14 8 NNO 1026,3 10
19.10.2018 14:00:00 12,3 6,3 9 5 14 8 NO 1026,2 10
19.10.2018 13:00:00 12,6 6,3 15 8 18 10 ONO 1026,5 10
19.10.2018 12:00:00 12,6 6,0 15 8 25 14 ONO 1026,5 10
19.10.2018 11:00:00 12,3 6,3 22 12 29 16 ONO 1026,2 10
19.10.2018 10:00:00 12,3 5,7 24 13 29 16 ONO 1025,9 10
19.10.2018 09:00:00 12,7 5,9 26 14 29 16 ONO 1026,1 10
19.10.2018 08:00:00 12,7 6,1 24 13 29 16 ONO 1025,9 10
19.10.2018 07:00:00 12,9 6,7 28 15 29 16 ONO 1025,9 10
19.10.2018 06:00:00 12,9 7,0 28 15 29 16 O 1025,9 10
19.10.2018 05:00:00 12,9 7,2 26 14 29 16 O 1026,0 10
19.10.2018 04:00:00 13,1 8,4 29 16 32 18 O 1025,9 10
19.10.2018 03:00:00 13,6 8,2 26 14 29 16 O 1025,9 10
19.10.2018 02:00:00 13,8 8,3 28 15 29 16 O 1026,1 10
19.10.2018 01:00:00 14,0 8,3 26 14 29 16 ONO 1026,1 10
19.10.2018 00:00:00 14,3 8,4 29 16 29 16 ONO 1026,2 10
18.10.2018 23:00:00 14,8 6,6 29 16 32 18 ONO 1026,3 10
18.10.2018 22:00:00 14,7 8,8 28 15 29 16 ONO 1026,4 10
18.10.2018 21:00:00 14,7 8,7 26 14 32 18 NNO 1026,4 10
18.10.2018 20:00:00 14,9 6,5 28 15 29 16 NO 1026,2 10
18.10.2018 19:00:00 14,7 8,1 21 11 29 16 NNO 1026,1 10
18.10.2018 18:00:00 14,4 8,5 21 11 25 14 NNO 1025,9 10
18.10.2018 17:00:00 14,3 8,5 18 10 25 14 N 1025,9 10
18.10.2018 16:00:00 14,3 8,5 14 8 25 14 NNO 1026,3 33
18.10.2018 15:00:00 14,3 8,3 21 11 29 16 NNO 1026,3 10
18.10.2018 14:00:00 14,2 8,7 24 13 32 18 N 1026,4 10
18.10.2018 13:00:00 14,4 8,9 24 13 32 18 NNO 1026,6 10
18.10.2018 12:00:00 14,4 8,8 24 13 32 18 NNO 1026,6 10
18.10.2018 11:00:00 14,4 9,0 28 15 36 19 NNO 1026,3 10
18.10.2018 10:00:00 14,3 8,6 26 14 36 19 N 1025,9 10
18.10.2018 09:00:00 14,2 8,5 28 15 36 19 N 1025,1 10
18.10.2018 08:00:00 14,5 8,9 21 11 29 16 N 1024,7 10
18.10.2018 07:00:00 14,5 9,6 21 11 29 16 N 1024,4 10
18.10.2018 06:00:00 14,6 9,7 16 9 29 16 - 1024,1 10
18.10.2018 05:00:00 15,0 10,6 15 8 32 18 - 1024,0 10
18.10.2018 04:00:00 15,1 10,6 15 8 29 16 - 1023,7 10
18.10.2018 03:00:00 15,2 11,6 26 14 29 16 N 1023,5 10
18.10.2018 02:00:00 14,5 12,5 18 10 25 14 N 1023,6 8
18.10.2018 01:00:00 15,1 12,2 9 5 18 10 - 1023,1 10
18.10.2018 00:00:00 13,9 12,7 15 8 22 12 NNW 1022,7 10
17.10.2018 23:00:00 14,7 13,0 11 6 14 8 NNW 1022,6 9
17.10.2018 22:00:00 14,7 12,6 15 8 18 10 NNW 1022,2 10
17.10.2018 21:00:00 14,5 12,8 11 6 14 8 NNW 1021,7 8
17.10.2018 20:00:00 14,1 11,9 11 6 18 10 NW 1021,3 3,4
17.10.2018 19:00:00 15,4 11,0 9 5 11 6 NW 1020,6 10
17.10.2018 18:00:00 15,5 10,7 9 5 14 8 W 1020,2 10
17.10.2018 17:00:00 15,3 10,4 15 8 18 10 W 1019,9 10
17.10.2018 16:00:00 15,4 10,3 16 9 18 10 WZW 1019,8 10
17.10.2018 15:00:00 15,4 10,6 21 11 22 12 WZW 1019,5 10
17.10.2018 14:00:00 15,4 10,7 16 9 22 12 WZW 1019,3 10
17.10.2018 13:00:00 15,3 10,3 22 12 22 12 WZW 1019,3 10
17.10.2018 12:00:00 15,4 11,1 22 12 25 14 ZW 1019,2 10
17.10.2018 11:00:00 15,4 11,0 22 12 25 14 ZW 1019,0 10
17.10.2018 10:00:00 15,2 11,4 22 12 25 14 WZW 1018,7 10
17.10.2018 09:00:00 15,6 11,3 26 14 25 14 WZW 1018,2 10
17.10.2018 08:00:00 16,0 11,2 24 13 25 14 ZW 1017,8 10
17.10.2018 07:00:00 16,0 12,0 22 12 25 14 ZW 1017,6 10
17.10.2018 06:00:00 16,1 11,9 26 14 29 16 - 1017,4 10
17.10.2018 05:00:00 16,1 13,4 29 16 32 18 WZW 1016,9 10
17.10.2018 04:00:00 16,3 14,3 28 15 29 16 ZW 1016,9 10
17.10.2018 03:00:00 16,6 14,0 22 12 25 14 ZW 1017,0 10
17.10.2018 02:00:00 16,7 14,3 22 12 25 14 ZW 1017,0 10
17.10.2018 01:00:00 16,8 15,1 16 9 22 12 ZW 1016,9 10
17.10.2018 00:00:00 17,1 14,4 24 13 25 14 ZW 1017,1 10
16.10.2018 23:00:00 17,4 13,6 21 11 22 12 ZW 1017,1 10
16.10.2018 22:00:00 17,7 13,0 21 11 25 14 ZZW 1017,0 10
16.10.2018 21:00:00 18,0 13,5 24 13 29 16 Z 1016,9 10
16.10.2018 20:00:00 18,1 13,1 26 14 25 14 ZZO 1016,6 10
16.10.2018 19:00:00 18,4 11,7 24 13 25 14 Z 1016,8 10
16.10.2018 18:00:00 18,0 12,7 26 14 29 16 Z 1016,7 10
16.10.2018 17:00:00 17,7 13,4 26 14 25 14 Z 1016,9 10
16.10.2018 16:00:00 17,8 13,5 26 14 47 25 Z 1017,0 10
16.10.2018 15:00:00 17,8 13,2 28 15 29 16 Z 1016,6 10
16.10.2018 14:00:00 17,7 13,6 24 13 29 16 ZZW 1017,0 10
16.10.2018 13:00:00 17,7 13,7 26 14 29 16 Z 1017,0 10
16.10.2018 12:00:00 17,5 14,0 29 16 29 16 Z 1016,9 10
16.10.2018 11:00:00 17,3 14,2 29 16 29 16 Z 1016,7 10
16.10.2018 10:00:00 16,9 14,6 26 14 25 14 ZZO 1016,4 9
16.10.2018 09:00:00 16,3 15,7 21 11 22 12 OZO 1016,3 5
16.10.2018 08:00:00 15,4 15,1 16 9 18 10 OZO 1016,2 0,3
16.10.2018 07:00:00 14,9 14,6 15 8 14 8 ZO 1016,1 0,2
16.10.2018 06:00:00 14,7 14,1 13 7 14 8 ZO 1015,9 0,3
16.10.2018 05:00:00 15,2 14,5 5 3 7 4 - 1015,8 3,8
16.10.2018 04:00:00 15,1 14,5 4 2 11 6 - 1015,9 5
16.10.2018 03:00:00 14,8 14,2 11 6 18 10 W 1016,0 5
16.10.2018 02:00:00 15,1 14,3 16 9 18 10 WZW 1016,1 3,5
16.10.2018 01:00:00 16,2 15,0 13 7 14 8 ZW 1015,5 6
16.10.2018 00:00:00 16,3 14,8 11 6 14 8 WZW 1015,2 7
15.10.2018 23:00:00 16,4 14,7 15 8 18 10 WZW 1014,7 7
15.10.2018 22:00:00 16,5 14,9 16 9 18 10 W 1014,4 9
15.10.2018 21:00:00 16,5 14,8 18 10 18 10 WZW 1013,8 7
15.10.2018 20:00:00 16,7 15,1 18 10 22 12 WZW 1013,3 8
15.10.2018 19:00:00 16,8 15,2 24 13 25 14 WZW 1013,0 8
15.10.2018 18:00:00 17,2 15,4 28 15 29 16 ZW 1012,0 10
15.10.2018 17:00:00 17,3 15,4 29 16 29 16 ZZW 1011,5 10
15.10.2018 16:00:00 17,4 15,1 29 16 32 18 ZZW 1010,9 10

tt = temperatuur
td = dauwpunt
ff = windsnelheid
fx = windstoten
dd = windrichting
ppp = luchtdruk
vv = zicht

Weerstations in de omgeving